| time (UTC) | temp F | wind direction | speed MPH | gust MPH | rain 1hr in | rain 24hr in | rain mn in | humidity % | barometer mb |
| 20260506002427 | 66 | 59 | 0.0 | 0.0 | 0.00 | 0.00 | 0.00 | 100 | |
| 20260506001927 | 63 | 59 | 0.0 | 0.0 | 0.00 | 0.00 | 0.00 | 100 | |
| 20260506001427 | 66 | 59 | 0.0 | 0.0 | 0.00 | 0.00 | 0.00 | 100 | |
| 20260506000926 | 66 | 59 | 0.0 | 0.0 | 0.00 | 0.00 | 0.00 | 100 | |
| 20260506000426 | 66 | 59 | 0.0 | 0.0 | 0.00 | 0.00 | 0.00 | 100 | |
| 20260505235926 | 64 | 59 | 0.0 | 0.0 | 0.00 | 0.00 | 0.00 | 100 | |
| 20260505235425 | 65 | 59 | 0.0 | 0.0 | 0.00 | 0.00 | 0.00 | 100 | |
| 20260505234925 | 64 | 59 | 0.0 | 2.0 | 0.00 | 0.00 | 0.00 | 100 | |
| 20260505234425 | 66 | 358 | 0.0 | 0.0 | 0.00 | 0.00 | 0.00 | 100 | |
| 20260505233925 | 66 | 358 | 0.0 | 0.0 | 0.00 | 0.00 | 0.00 | 100 | |
| 20260505233424 | 66 | 358 | 0.0 | 2.0 | 0.00 | 0.00 | 0.00 | 100 | |
| 20260505232924 | 63 | 187 | 0.0 | 0.0 | 0.00 | 0.00 | 0.00 | 100 | |
| 20260505232424 | 66 | 187 | 0.0 | 0.0 | 0.00 | 0.00 | 0.00 | 100 | |
| 20260505231923 | 66 | 187 | 0.0 | 0.0 | 0.00 | 0.00 | 0.00 | 100 | |
| 20260505231423 | 66 | 187 | 0.0 | 1.0 | 0.00 | 0.00 | 0.00 | 100 | |
| 20260505230923 | 66 | 185 | 1.0 | 1.0 | 0.00 | 0.00 | 0.00 | 100 | |
| 20260505230422 | 66 | 194 | 0.0 | 3.0 | 0.00 | 0.00 | 0.00 | 100 | |
| 20260505225922 | 66 | 234 | 0.0 | 0.0 | 0.00 | 0.00 | 0.00 | 100 | |
| 20260505225422 | 66 | 234 | 0.0 | 1.0 | 0.00 | 0.00 | 0.00 | 100 | |
| 20260505224922 | 66 | 230 | 0.0 | 3.0 | 0.00 | 0.00 | 0.00 | 100 | |
| 20260505224421 | 66 | 250 | 1.0 | 2.0 | 0.00 | 0.00 | 0.00 | 100 | |
| 20260505223921 | 65 | 286 | 1.0 | 2.0 | 0.00 | 0.00 | 0.00 | 100 | |
| 20260505223421 | 66 | 265 | 0.0 | 2.0 | 0.00 | 0.00 | 0.00 | 100 | |
| 20260505222920 | 66 | 293 | 0.0 | 2.0 | 0.00 | 0.00 | 0.00 | 100 | |
| 20260505222420 | 66 | 265 | 0.0 | 2.0 | 0.00 | 0.00 | 0.00 | 100 | |
| 20260505221920 | 66 | 279 | 0.0 | 1.0 | 0.00 | 0.00 | 0.00 | 100 | |
| 20260505221420 | 66 | 277 | 0.0 | 1.0 | 0.00 | 0.00 | 0.00 | 100 | |
| 20260505220919 | 66 | 270 | 0.0 | 0.0 | 0.00 | 0.00 | 0.00 | 100 | |
| 20260505220419 | 66 | 270 | 0.0 | 0.0 | 0.00 | 0.00 | 0.00 | 100 | |
| 20260505215919 | 65 | 270 | 0.0 | 0.0 | 0.00 | 0.00 | 0.00 | 100 | |
| 20260505215418 | 66 | 270 | 0.0 | 0.0 | 0.00 | 0.00 | 0.00 | 100 | |
| 20260505214918 | 67 | 271 | 0.0 | 3.0 | 0.00 | 0.00 | 0.00 | 100 | |
| 20260505214418 | 66 | 257 | 0.0 | 4.0 | 0.00 | 0.00 | 0.00 | 100 | |
| 20260505213918 | 66 | 315 | 3.0 | 5.0 | 0.00 | 0.00 | 0.00 | 100 | |
| 20260505213417 | 67 | 291 | 1.0 | 5.0 | 0.00 | 0.00 | 0.00 | 100 | |
| 20260505212917 | 68 | 323 | 5.0 | 6.0 | 0.00 | 0.00 | 0.00 | 100 | |
| 20260505212417 | 67 | 331 | 2.0 | 4.0 | 0.00 | 0.00 | 0.00 | 100 | |
| 20260505211916 | 68 | 338 | 0.0 | 5.0 | 0.00 | 0.00 | 0.00 | 100 | |
| 20260505211416 | 68 | 351 | 3.0 | 4.0 | 0.00 | 0.00 | 0.00 | 100 | |
| 20260505210916 | 68 | 319 | 3.0 | 7.0 | 0.00 | 0.00 | 0.00 | 100 | |
| 20260505210416 | 67 | 305 | 5.0 | 11.0 | 0.00 | 0.00 | 0.00 | 100 | |
| 20260505205915 | 67 | 305 | 4.0 | 9.0 | 0.00 | 0.00 | 0.00 | 100 | |
| 20260505205415 | 67 | 334 | 5.0 | 10.0 | 0.00 | 0.00 | 0.00 | 100 | |
| 20260505204915 | 67 | 298 | 5.0 | 9.0 | 0.00 | 0.00 | 0.00 | 100 | |
| 20260505204414 | 68 | 292 | 7.0 | 12.0 | 0.00 | 0.00 | 0.00 | 100 | |
| 20260505203914 | 67 | 261 | 5.0 | 10.0 | 0.00 | 0.00 | 0.00 | 100 | |
| 20260505203414 | 68 | 298 | 8.0 | 10.0 | 0.00 | 0.00 | 0.00 | 100 | |
| 20260505202913 | 68 | 306 | 7.0 | 14.0 | 0.00 | 0.00 | 0.00 | 100 | |
| 20260505202413 | 68 | 305 | 3.0 | 14.0 | 0.00 | 0.00 | 0.00 | 100 | |
| 20260505201913 | 68 | 309 | 11.0 | 14.0 | 0.00 | 0.00 | 0.00 | 100 | |
| 20260505201413 | 68 | 317 | 8.0 | 14.0 | 0.00 | 0.00 | 0.00 | 100 | |
| 20260505200912 | 68 | 288 | 12.0 | 16.0 | 0.00 | 0.00 | 0.00 | 100 | |
| 20260505200412 | 68 | 282 | 8.0 | 16.0 | 0.00 | 0.00 | 0.00 | 100 | |
| 20260505195912 | 69 | 270 | 8.0 | 16.0 | 0.00 | 0.00 | 0.00 | 100 | |
| 20260505195411 | 68 | 322 | 7.0 | 14.0 | 0.00 | 0.00 | 0.00 | 100 | |
| 20260505194911 | 68 | 254 | 5.0 | 12.0 | 0.00 | 0.00 | 0.00 | 100 | |
| 20260505194411 | 69 | 292 | 8.0 | 18.0 | 0.00 | 0.00 | 0.00 | 100 | |
| 20260505193910 | 69 | 258 | 10.0 | 18.0 | 0.00 | 0.00 | 0.00 | 100 | |
| 20260505193410 | 68 | 268 | 12.0 | 14.0 | 0.00 | 0.00 | 0.00 | 100 | |
| 20260505192910 | 69 | 285 | 8.0 | 13.0 | 0.00 | 0.00 | 0.00 | 100 | |
| 20260505192410 | 69 | 254 | 8.0 | 18.0 | 0.00 | 0.00 | 0.00 | 100 | |
| 20260505191909 | 69 | 312 | 8.0 | 17.0 | 0.00 | 0.00 | 0.00 | 100 | |
| 20260505191409 | 70 | 313 | 5.0 | 16.0 | 0.00 | 0.00 | 0.00 | 100 | |
| 20260505190909 | 70 | 261 | 7.0 | 15.0 | 0.00 | 0.00 | 0.00 | 100 | |
| 20260505190408 | 70 | 250 | 10.0 | 17.0 | 0.00 | 0.00 | 0.00 | 100 | |
| 20260505185908 | 70 | 300 | 7.0 | 13.0 | 0.00 | 0.00 | 0.00 | 100 | |
| 20260505185408 | 69 | 255 | 7.0 | 15.0 | 0.00 | 0.00 | 0.00 | 100 | |
| 20260505184908 | 70 | 307 | 6.0 | 17.0 | 0.00 | 0.00 | 0.00 | 100 | |
| 20260505184407 | 70 | 312 | 9.0 | 21.0 | 0.00 | 0.00 | 0.00 | 100 | |
| 20260505183907 | 70 | 279 | 10.0 | 16.0 | 0.00 | 0.00 | 0.00 | 100 | |
| 20260505183407 | 70 | 282 | 9.0 | 15.0 | 0.00 | 0.00 | 0.00 | 100 | |
| 20260505182906 | 70 | 262 | 8.0 | 17.0 | 0.00 | 0.00 | 0.00 | 100 | |
| 20260505182406 | 70 | 232 | 9.0 | 16.0 | 0.00 | 0.00 | 0.00 | 100 | |
| 20260505181906 | 71 | 296 | 9.0 | 19.0 | 0.00 | 0.00 | 0.00 | 100 | |
| 20260505181406 | 71 | 291 | 8.0 | 16.0 | 0.00 | 0.00 | 0.00 | 100 | |
| 20260505180905 | 71 | 310 | 12.0 | 15.0 | 0.00 | 0.00 | 0.00 | 100 | |
| 20260505180405 | 72 | 260 | 8.0 | 18.0 | 0.00 | 0.00 | 0.00 | 100 | |
| 20260505175905 | 71 | 271 | 11.0 | 15.0 | 0.00 | 0.00 | 0.00 | 100 | |
| 20260505175404 | 71 | 244 | 6.0 | 17.0 | 0.00 | 0.00 | 0.00 | 100 | |
| 20260505174904 | 72 | 271 | 11.0 | 15.0 | 0.00 | 0.00 | 0.00 | 100 | |
| 20260505174404 | 72 | 285 | 4.0 | 17.0 | 0.00 | 0.00 | 0.00 | 100 | |
| 20260505173903 | 72 | 277 | 5.0 | 21.0 | 0.00 | 0.00 | 0.00 | 100 | |
| 20260505173403 | 72 | 244 | 11.0 | 16.0 | 0.00 | 0.00 | 0.00 | 100 | |
| 20260505172903 | 73 | 261 | 12.0 | 17.0 | 0.00 | 0.00 | 0.00 | 100 | |
| 20260505172403 | 73 | 278 | 8.0 | 23.0 | 0.00 | 0.00 | 0.00 | 100 | |
| 20260505171902 | 73 | 265 | 12.0 | 21.0 | 0.00 | 0.00 | 0.00 | 100 | |
| 20260505171402 | 73 | 26 | 3.0 | 20.0 | 0.00 | 0.00 | 0.00 | 100 | |
| 20260505170902 | 73 | 257 | 10.0 | 19.0 | 0.00 | 0.00 | 0.00 | 100 | |
| 20260505170401 | 74 | 270 | 8.0 | 24.0 | 0.00 | 0.00 | 0.00 | 100 | |
| 20260505165901 | 75 | 302 | 7.0 | 17.0 | 0.00 | 0.00 | 0.00 | 100 | |
| 20260505165401 | 74 | 288 | 6.0 | 18.0 | 0.00 | 0.00 | 0.00 | 100 | |
| 20260505164901 | 75 | 284 | 7.0 | 20.0 | 0.00 | 0.00 | 0.00 | 100 | |
| 20260505164400 | 75 | 286 | 8.0 | 20.0 | 0.00 | 0.00 | 0.00 | 100 | |
| 20260505163900 | 75 | 284 | 9.0 | 17.0 | 0.00 | 0.00 | 0.00 | 100 | |
| 20260505163400 | 76 | 161 | 3.0 | 25.0 | 0.00 | 0.00 | 0.00 | 100 | |
| 20260505162859 | 76 | 275 | 10.0 | 22.0 | 0.00 | 0.00 | 0.00 | 100 | |
| 20260505162359 | 76 | 262 | 17.0 | 23.0 | 0.00 | 0.00 | 0.00 | 100 | |
| 20260505161859 | 76 | 282 | 12.0 | 22.0 | 0.00 | 0.00 | 0.00 | 100 | |
| 20260505161358 | 76 | 270 | 5.0 | 21.0 | 0.00 | 0.00 | 0.00 | 100 | |
| 20260505160858 | 76 | 240 | 11.0 | 24.0 | 0.00 | 0.00 | 0.00 | 100 | |
| 20260505160358 | 76 | 286 | 18.0 | 22.0 | 0.00 | 0.00 | 0.00 | 100 | |
| 20260505153356 | 77 | 217 | 11.0 | 18.0 | 0.00 | 0.00 | 0.00 | 100 | |
| 20260505152856 | 77 | 281 | 11.0 | 14.0 | 0.00 | 0.00 | 0.00 | 100 | |
| 20260505152356 | 77 | 306 | 8.0 | 17.0 | 0.00 | 0.00 | 0.00 | 100 | |
| 20260505151855 | 77 | 217 | 15.0 | 21.0 | 0.00 | 0.00 | 0.00 | 100 | |
| 20260505151355 | 77 | 306 | 11.0 | 23.0 | 0.00 | 0.00 | 0.00 | 100 | |
| 20260505150855 | 78 | 284 | 8.0 | 20.0 | 0.00 | 0.00 | 0.00 | 100 | |
| 20260505150354 | 78 | 277 | 10.0 | 23.0 | 0.00 | 0.00 | 0.00 | 100 | |
| 20260505140351 | 83 | 198 | 10.0 | 25.0 | 0.00 | 0.00 | 0.00 | 100 | |
| 20260505124847 | 86 | 302 | 8.0 | 25.0 | 0.00 | 0.00 | 0.00 | 100 | |
| 20260505124346 | 85 | 315 | 11.0 | 26.0 | 0.00 | 0.00 | 0.00 | 100 | |
| 20260505123846 | 85 | 323 | 7.0 | 25.0 | 0.00 | 0.00 | 0.00 | 100 | |
| 20260505123346 | 86 | 240 | 13.0 | 27.0 | 0.00 | 0.00 | 0.00 | 100 | |
| 20260505122845 | 85 | 206 | 11.0 | 27.0 | 0.00 | 0.00 | 0.00 | 100 | |
| 20260505122345 | 83 | 275 | 7.0 | 23.0 | 0.00 | 0.00 | 0.00 | 100 | |
| 20260505121845 | 83 | 84 | 1.0 | 22.0 | 0.00 | 0.00 | 0.00 | 100 | |
| 20260505121345 | 83 | 254 | 12.0 | 21.0 | 0.00 | 0.00 | 0.00 | 100 | |
| 20260505120844 | 83 | 258 | 14.0 | 22.0 | 0.00 | 0.00 | 0.00 | 100 | |
| 20260505120344 | 83 | 237 | 10.0 | 20.0 | 0.00 | 0.00 | 0.00 | 100 | |
| 20260505115844 | 83 | 275 | 15.0 | 23.0 | 0.00 | 0.00 | 0.00 | 100 | |
| 20260505115343 | 83 | 322 | 10.0 | 22.0 | 0.00 | 0.00 | 0.00 | 100 | |
| 20260505114843 | 83 | 275 | 14.0 | 22.0 | 0.00 | 0.00 | 0.00 | 100 | |
| 20260505114343 | 83 | 317 | 5.0 | 21.0 | 0.00 | 0.00 | 0.00 | 100 | |
| 20260505113842 | 83 | 243 | 9.0 | 17.0 | 0.00 | 0.00 | 0.00 | 100 | |
| 20260505113342 | 84 | 247 | 10.0 | 18.0 | 0.00 | 0.00 | 0.00 | 100 | |
| 20260505112842 | 82 | 265 | 8.0 | 21.0 | 0.00 | 0.00 | 0.00 | 100 | |
| 20260505112342 | 83 | 237 | 14.0 | 22.0 | 0.00 | 0.00 | 0.00 | 100 | |
| 20260505111841 | 83 | 275 | 9.0 | 21.0 | 0.00 | 0.00 | 0.00 | 100 | |
| 20260505111341 | 83 | 277 | 8.0 | 19.0 | 0.00 | 0.00 | 0.00 | 100 | |
| 20260505110841 | 83 | 253 | 9.0 | 19.0 | 0.00 | 0.00 | 0.00 | 100 | |
| 20260505110340 | 83 | 279 | 14.0 | 19.0 | 0.00 | 0.00 | 0.00 | 100 | |
| 20260505101838 | 85 | 226 | 15.0 | 15.0 | 0.00 | 0.00 | 0.00 | 100 | |
| 20260505101337 | 83 | 286 | 2.0 | 17.0 | 0.00 | 0.00 | 0.00 | 100 | |
| 20260505100837 | 83 | 213 | 4.0 | 11.0 | 0.00 | 0.00 | 0.00 | 100 | |
| 20260505100337 | 85 | 250 | 9.0 | 11.0 | 0.00 | 0.00 | 0.00 | 100 | |
| 20260505095837 | 84 | 282 | 6.0 | 14.0 | 0.00 | 0.00 | 0.00 | 100 | |
| 20260505095336 | 83 | 279 | 5.0 | 15.0 | 0.00 | 0.00 | 0.00 | 100 | |
| 20260505094836 | 82 | 208 | 10.0 | 17.0 | 0.00 | 0.00 | 0.00 | 100 | |
| 20260505094336 | 85 | 208 | 5.0 | 11.0 | 0.00 | 0.00 | 0.00 | 100 | |
| 20260505093835 | 86 | 222 | 4.0 | 9.0 | 0.00 | 0.00 | 0.00 | 100 | |
| 20260505093335 | 82 | 167 | 3.0 | 13.0 | 0.00 | 0.00 | 0.00 | 100 | |
| 20260505092835 | 88 | 320 | 1.0 | 2.0 | 0.00 | 0.00 | 0.00 | 100 | |
| 20260505092335 | 86 | 133 | 0.0 | 8.0 | 0.00 | 0.00 | 0.00 | 100 | |
| 20260505091834 | 84 | 157 | 0.0 | 5.0 | 0.00 | 0.00 | 0.00 | 100 | |
| 20260505091334 | 79 | 150 | 3.0 | 10.0 | 0.00 | 0.00 | 0.00 | 100 | |
| 20260505090834 | 80 | 153 | 5.0 | 8.0 | 0.00 | 0.00 | 0.00 | 100 | |
| 20260505090333 | 84 | 165 | 3.0 | 3.0 | 0.00 | 0.00 | 0.00 | 100 | |
| 20260505085833 | 80 | 46 | 0.0 | 5.0 | 0.00 | 0.00 | 0.00 | 100 | |
| 20260505085333 | 79 | 149 | 4.0 | 6.0 | 0.00 | 0.00 | 0.00 | 100 | |
| 20260505084833 | 77 | 123 | 1.0 | 6.0 | 0.00 | 0.00 | 0.00 | 100 | |
| 20260505084332 | 77 | 135 | 3.0 | 5.0 | 0.00 | 0.00 | 0.00 | 100 | |
| 20260505083832 | 74 | 154 | 0.0 | 8.0 | 0.00 | 0.00 | 0.00 | 100 | |
| 20260505083332 | 77 | 140 | 3.0 | 5.0 | 0.00 | 0.00 | 0.00 | 100 | |
| 20260505082831 | 73 | 57 | 0.0 | 6.0 | 0.00 | 0.00 | 0.00 | 100 | |
| 20260505082331 | 74 | 130 | 2.0 | 8.0 | 0.00 | 0.00 | 0.00 | 100 | |
| 20260505081831 | 73 | 88 | 1.0 | 6.0 | 0.00 | 0.00 | 0.00 | 100 | |
| 20260505081330 | 72 | 181 | 4.0 | 6.0 | 0.00 | 0.00 | 0.00 | 100 | |
| 20260505080830 | 73 | 157 | 5.0 | 9.0 | 0.00 | 0.00 | 0.00 | 100 | |
| 20260505080330 | 72 | 209 | 3.0 | 6.0 | 0.00 | 0.00 | 0.00 | 100 | |
| 20260505075830 | 71 | 195 | 1.0 | 8.0 | 0.00 | 0.00 | 0.00 | 100 | |
| 20260505075329 | 69 | 95 | 3.0 | 6.0 | 0.00 | 0.00 | 0.00 | 100 | |
| 20260505074829 | 71 | 108 | 1.0 | 4.0 | 0.00 | 0.00 | 0.00 | 100 | |
| 20260505074329 | 71 | 203 | 0.0 | 5.0 | 0.00 | 0.00 | 0.00 | 100 | |
| 20260505073828 | 69 | 157 | 2.0 | 6.0 | 0.00 | 0.00 | 0.00 | 100 | |
| 20260505073328 | 74 | 35 | 0.0 | 4.0 | 0.00 | 0.00 | 0.00 | 100 | |
| 20260505072828 | 74 | 78 | 0.0 | 2.0 | 0.00 | 0.00 | 0.00 | 100 | |
| 20260505072328 | 72 | 12 | 0.0 | 0.0 | 0.00 | 0.00 | 0.00 | 100 | |
| 20260505071827 | 68 | 12 | 0.0 | 4.0 | 0.00 | 0.00 | 0.00 | 100 | |
| 20260505071327 | 64 | 29 | 3.0 | 3.0 | 0.00 | 0.00 | 0.00 | 100 | |
| 20260505070827 | 65 | 358 | 0.0 | 0.0 | 0.00 | 0.00 | 0.00 | 100 | |
| 20260505070326 | 69 | 358 | 0.0 | 0.0 | 0.00 | 0.00 | 0.00 | 100 | |
| 20260505065826 | 68 | 18 | 0.0 | 0.0 | 0.00 | 0.00 | 0.00 | 100 | |
| 20260505065326 | 67 | 18 | 0.0 | 3.0 | 0.00 | 0.00 | 0.00 | 100 | |
| 20260505064826 | 67 | 42 | 3.0 | 3.0 | 0.00 | 0.00 | 0.00 | 100 | |
| 20260505064325 | 67 | 357 | 0.0 | 0.0 | 0.00 | 0.00 | 0.00 | 100 | |
| 20260505063825 | 67 | 357 | 0.0 | 0.0 | 0.00 | 0.00 | 0.00 | 100 | |
| 20260505063325 | 67 | 357 | 0.0 | 0.0 | 0.00 | 0.00 | 0.00 | 100 | |
| 20260505062824 | 65 | 357 | 0.0 | 0.0 | 0.00 | 0.00 | 0.00 | 100 | |
| 20260505062324 | 66 | 357 | 0.0 | 0.0 | 0.00 | 0.00 | 0.00 | 100 | |
| 20260505061824 | 68 | 357 | 0.0 | 0.0 | 0.00 | 0.00 | 0.00 | 100 | |
| 20260505061323 | 69 | 357 | 0.0 | 0.0 | 0.00 | 0.00 | 0.00 | 100 | |
| 20260505060823 | 70 | 357 | 0.0 | 0.0 | 0.00 | 0.00 | 0.00 | 100 | |
| 20260505060323 | 69 | 357 | 0.0 | 0.0 | 0.00 | 0.00 | 0.00 | 100 | |
| 20260505055823 | 70 | 357 | 0.0 | 0.0 | 0.00 | 0.00 | 0.00 | 100 | |
| 20260505055322 | 69 | 357 | 0.0 | 0.0 | 0.00 | 0.00 | 0.00 | 100 | |
| 20260505054822 | 69 | 357 | 0.0 | 0.0 | 0.00 | 0.00 | 0.00 | 100 | |
| 20260505054322 | 68 | 357 | 0.0 | 0.0 | 0.00 | 0.00 | 0.00 | 100 | |
| 20260505053821 | 69 | 357 | 0.0 | 0.0 | 0.00 | 0.00 | 0.00 | 100 | |
| 20260505053321 | 69 | 357 | 0.0 | 0.0 | 0.00 | 0.00 | 0.00 | 100 | |
| 20260505052821 | 68 | 21 | 0.0 | 0.0 | 0.00 | 0.00 | 0.00 | 100 | |
| 20260505052321 | 68 | 21 | 0.0 | 0.0 | 0.00 | 0.00 | 0.00 | 100 | |
| 20260505051820 | 68 | 21 | 0.0 | 0.0 | 0.00 | 0.00 | 0.00 | 100 | |
| 20260505051320 | 71 | 21 | 0.0 | 0.0 | 0.00 | 0.00 | 0.00 | 100 | |
| 20260505050820 | 72 | 21 | 0.0 | 0.0 | 0.00 | 0.00 | 0.00 | 100 | |
| 20260505050319 | 70 | 15 | 0.0 | 0.0 | 0.00 | 0.00 | 0.00 | 100 | |
| 20260505041316 | 63 | 15 | 0.0 | 0.0 | 0.00 | 0.00 | 0.00 | 100 | |
| 20260505040816 | 62 | 15 | 0.0 | 0.0 | 0.00 | 0.00 | 0.00 | 100 | |
| 20260505040316 | 62 | 15 | 0.0 | 0.0 | 0.00 | 0.00 | 0.00 | 100 | |
| 20260505035816 | 62 | 15 | 0.0 | 0.0 | 0.00 | 0.00 | 0.00 | 100 | |
| 20260505035315 | 62 | 15 | 0.0 | 0.0 | 0.00 | 0.00 | 0.00 | 100 | |
| 20260505034815 | 63 | 15 | 0.0 | 0.0 | 0.00 | 0.00 | 0.00 | 100 | |
| 20260505034315 | 61 | 15 | 0.0 | 0.0 | 0.00 | 0.00 | 0.00 | 100 | |
| 20260505033814 | 61 | 15 | 0.0 | 0.0 | 0.00 | 0.00 | 0.00 | 100 | |
| 20260505033314 | 61 | 15 | 0.0 | 1.0 | 0.00 | 0.00 | 0.00 | 100 | |
| 20260505032814 | 60 | 175 | 0.0 | 0.0 | 0.00 | 0.00 | 0.00 | 100 | |
| 20260505032314 | 60 | 175 | 0.0 | 0.0 | 0.00 | 0.00 | 0.00 | 100 | |
| 20260505031813 | 62 | 175 | 0.0 | 0.0 | 0.00 | 0.00 | 0.00 | 100 | |
| 20260505031313 | 61 | 175 | 0.0 | 0.0 | 0.00 | 0.00 | 0.00 | 100 | |
| 20260505030813 | 61 | 175 | 0.0 | 0.0 | 0.00 | 0.00 | 0.00 | 100 | |
| 20260505030312 | 61 | 175 | 0.0 | 0.0 | 0.00 | 0.00 | 0.00 | 100 | |
| 20260505025812 | 61 | 175 | 0.0 | 0.0 | 0.00 | 0.00 | 0.00 | 100 | |
| 20260505025312 | 61 | 175 | 0.0 | 0.0 | 0.00 | 0.00 | 0.00 | 100 | |
| 20260505024811 | 62 | 175 | 0.0 | 0.0 | 0.00 | 0.00 | 0.00 | 100 | |
| 20260505024311 | 60 | 175 | 0.0 | 0.0 | 0.00 | 0.00 | 0.00 | 100 | |
| 20260505023811 | 61 | 175 | 0.0 | 0.0 | 0.00 | 0.00 | 0.00 | 100 | |
| 20260505023311 | 62 | 175 | 0.0 | 0.0 | 0.00 | 0.00 | 0.00 | 100 | |
| 20260505022810 | 62 | 175 | 0.0 | 0.0 | 0.00 | 0.00 | 0.00 | 100 | |
| 20260505022310 | 62 | 175 | 0.0 | 0.0 | 0.00 | 0.00 | 0.00 | 100 | |
| 20260505021810 | 62 | 175 | 0.0 | 0.0 | 0.00 | 0.00 | 0.00 | 100 | |
| 20260505021309 | 62 | 175 | 0.0 | 0.0 | 0.00 | 0.00 | 0.00 | 100 | |
| 20260505020809 | 62 | 175 | 0.0 | 0.0 | 0.00 | 0.00 | 0.00 | 100 | |
| 20260505020309 | 61 | 175 | 0.0 | 0.0 | 0.00 | 0.00 | 0.00 | 100 | |
| 20260505015809 | 61 | 175 | 0.0 | 0.0 | 0.00 | 0.00 | 0.00 | 100 | |
| 20260505015308 | 63 | 175 | 0.0 | 0.0 | 0.00 | 0.00 | 0.00 | 100 | |
| 20260505014808 | 62 | 175 | 0.0 | 1.0 | 0.00 | 0.00 | 0.00 | 100 | |
| 20260505014308 | 62 | 29 | 0.0 | 0.0 | 0.00 | 0.00 | 0.00 | 100 | |
| 20260505013807 | 63 | 29 | 0.0 | 0.0 | 0.00 | 0.00 | 0.00 | 100 | |
| 20260505013307 | 63 | 29 | 0.0 | 0.0 | 0.00 | 0.00 | 0.00 | 100 | |
| 20260505012807 | 61 | 29 | 0.0 | 0.0 | 0.00 | 0.00 | 0.00 | 100 | |
| 20260505012307 | 62 | 29 | 0.0 | 0.0 | 0.00 | 0.00 | 0.00 | 100 | |
| 20260505011806 | 62 | 29 | 0.0 | 0.0 | 0.00 | 0.00 | 0.00 | 100 | |
| 20260505011306 | 63 | 29 | 0.0 | 0.0 | 0.00 | 0.00 | 0.00 | 100 | |
| 20260505010806 | 63 | 29 | 0.0 | 2.0 | 0.00 | 0.00 | 0.00 | 100 | |
| 20260505010305 | 63 | 80 | 0.0 | 0.0 | 0.00 | 0.00 | 0.00 | 100 | |
| 20260505005805 | 63 | 16 | 0.0 | 1.0 | 0.00 | 0.00 | 0.00 | 100 | |
| 20260505005305 | 60 | 30 | 0.0 | 2.0 | 0.00 | 0.00 | 0.00 | 100 | |
| 20260505004805 | 61 | 26 | 0.0 | 0.0 | 0.00 | 0.00 | 0.00 | 100 | |
| 20260505004304 | 63 | 26 | 0.0 | 0.0 | 0.00 | 0.00 | 0.00 | 100 | |
| 20260505003804 | 62 | 26 | 0.0 | 0.0 | 0.00 | 0.00 | 0.00 | 100 | |
| 20260505003304 | 62 | 26 | 0.0 | 0.0 | 0.00 | 0.00 | 0.00 | 100 | |
| 20260505002803 | 59 | 26 | 0.0 | 0.0 | 0.00 | 0.00 | 0.00 | 100 |